Satellite-Ground Cal/Val Site Overpasses Predictions

Prediction of Satellite NPP Overpassing Cal/Val Site: Antarctic Dome C

Ground Cal/Val Site Location: Latitude: -75.10, Longitude: 123.35; Satellite-Ground Site NADIR distance within 100 km.

Table of predicted overpasses for the next 14.0 days since TLE Epoch: 10/27/2012
Interval Starting Time Ending Time Minimum Distance Time Minimum Distance (km)
1 10/30/2012 14:52:48 10/30/2012 14:53:17 10/30/2012 14:53:03 20.54
2 10/31/2012 14:34:06 10/31/2012 14:34:21 10/31/2012 14:34:13 86.60
3 11/01/2012 07:35:39 11/01/2012 07:36:07 11/01/2012 07:35:53 35.60
4 11/02/2012 07:16:54 11/02/2012 07:17:13 11/02/2012 07:17:03 74.38
5 11/04/2012 14:59:10 11/04/2012 14:59:33 11/04/2012 14:59:21 57.80
6 11/05/2012 14:40:21 11/05/2012 14:40:46 11/05/2012 14:40:33 51.32
7 11/06/2012 07:42:02 11/06/2012 07:42:23 11/06/2012 07:42:12 71.23
8 11/07/2012 07:23:10 11/07/2012 07:23:37 11/07/2012 07:23:23 36.69
9 11/09/2012 15:05:38 11/09/2012 15:05:46 11/09/2012 15:05:42 95.84


<
